Participated 3 times
Between 1970 and 1973
Pierre Martellozzo, France
Tour de France 2026 starts from Barcelona, Spain in

Stats and Facts from
Tour de France.

2026   2025   2024   2023  2022  2021  2020  2019   2018  2017   2016   2015  2014  2013   2012   2011  2010   2009   2008   2007   2006   2005   2004   2003   2002   2001   2000   1999   1998   1997  1996   1995   1994   1993   1992  1991   1990   1989   1988   1987   1986   1985   1984   1983  1982  1981   1980   1979  1978  1977   1976  1975  1974  1973   1972   1971   1970  1969   1968   1967   1966   1965  1964  1963   1962   1961   1960   1959   1958   1957  1956   1955   1954   1953   1952  1951  1950  1949   1948  1947  1939   1938   1937   1936   1935   1934   1933  1932   1931   1930  1929   1928   1927   1926  1925  1924  1923   1922   1921   1920   1919  1914   1913   1912   1911   1910  1909   1908   1907   1906  1905  1904   1903 

Tourstats
Sitemap

After stage 21 - 2025:
 16451 starters.
  5464 different riders.
  689 teams.
  2398 stages.
  470 restdays.
  466506.50 km.
  5925 abandoned riders.

Click map for 1910 route.
Facts from Tour de France 1910 Additional info and images from 1910.
  |   Stages.  |   Stage winners.  |   Days in jerseys.  |   Teams.  |   All riders.  |   All riders by age.  |   All riders from.  |  

  |   Rookies.  |   Withdrawls.  |   Average speed.  |   GC.  |   Polka  |   Green  |   White  |   Summits. (In tour)  |   Miscellaneous.  |  

Stage 1 on July 3rd. 1910
Pick a stage:  1  2  3  4  5  6  7  8  9  10  11  12  13  14  15  

After stage 1:    Charles Crupelandt  
  ParisRoubaix | Dist: 272.00km. | Winner: Charles Crupelandt

Podium

Average speed for all riders in stage:  22,874 km./hr.

1
 Charles Crupelandt  Le Globe08h 54' 00"=30,562  km/h

2
 Cyrille Van Hauwaert  Alcyon09h 14' 00"+  00:20:00 =29,458  km/h

3
 Octave Lapize  Alcyon09h 14' 00"+  00:20:00 =29,458  km/h

4  François Faber  Alcyon09h 14' 00"+  00:20:00 =29,458  km/h

5  Charles Cruchon  Individual09h 15' 00"+  00:21:00 =29,405  km/h

6  Constant Menager  Legnano09h 22' 00"+  00:28:00 =29,039  km/h

7  Pierino Albini  Legnano09h 22' 00"+  00:28:00 =29,039  km/h

8  Lucien Petit-Breton  Legnano09h 23' 00"+  00:29:00 =28,988  km/h

9  Gustave Garrigou  Alcyon09h 24' 00"+  00:30:00 =28,936  km/h

10  Ernesto Azzini  Legnano09h 30' 00"+  00:36:00 =28,632  km/h

11  Louis Trousselier  Alcyon09h 33' 00"+  00:39:00 =28,482  km/h

12  Henri Cornet  Le Globe09h 33' 00"+  00:39:00 =28,482  km/h

13  Marcel Godivier  Alcyon09h 33' 00"+  00:39:00 =28,482  km/h

14  André Blaise  Alcyon09h 33' 00"+  00:39:00 =28,482  km/h

15  Maurice Pardon  Individual09h 33' 00"+  00:39:00 =28,482  km/h

16  Ernest Paul  Individual09h 33' 00"+  00:39:00 =28,482  km/h

17  Jean-Baptiste Dortignacq  Legnano09h 49' 00"+  00:55:00 =27,708  km/h

18  Emile Georget  Legnano09h 49' 00"+  00:55:00 =27,708  km/h

19  Julien Maîtron  Le Globe09h 49' 00"+  00:55:00 =27,708  km/h

20  Giuseppe Azzini  Legnano09h 49' 00"+  00:55:00 =27,708  km/h

21  Edouard Leonard  Alcyon09h 53' 00"+  00:59:00 =27,521  km/h

22  Jules Deloffre  Le Globe09h 53' 00"+  00:59:00 =27,521  km/h

23  Lauro Bordin  Legnano10h 00' 00"+  01:06:00 =27,200  km/h

24  Jean Bouillet  Individual10h 00' 00"+  01:06:00 =27,200  km/h

25  Maurice Loit  Le Globe10h 02' 00"+  01:08:00 =27,110  km/h

26  François  Lafourcade  Individual10h 06' 00"+  01:12:00 =26,931  km/h

27  Charles Dumont  Individual10h 06' 00"+  01:12:00 =26,931  km/h

28  Louis Pennequin  Individual10h 07' 00"+  01:13:00 =26,886  km/h

29  Frédéric Saillot  Le Globe10h 09' 00"+  01:15:00 =26,798  km/h

30  Augustin Ringeval  Individual10h 14' 00"+  01:20:00 =26,580  km/h

31  Maurice Brocco  Legnano10h 23' 00"+  01:29:00 =26,196  km/h

32  Maurice Decaup  Legnano10h 23' 00"+  01:29:00 =26,196  km/h

33  Lucien Pothier  Individual10h 23' 00"+  01:29:00 =26,196  km/h

34  Joseph Habierre  Individual10h 25' 00"+  01:31:00 =26,112  km/h

35  Gabriel Mathonat  Individual10h 25' 00"+  01:31:00 =26,112  km/h

36  Georges Paulmier  Le Globe10h 29' 00"+  01:35:00 =25,946  km/h

37  Leon Lannoy  Le Globe10h 29' 00"+  01:35:00 =25,946  km/h

38  Raphael Galiero  Individual10h 29' 00"+  01:35:00 =25,946  km/h

39  Auguste Guyon  Individual10h 47' 00"+  01:53:00 =25,224  km/h

40  Robert Chopard  Individual10h 49' 00"+  01:55:00 =25,146  km/h

41  Camille Bière  Individual10h 49' 00"+  01:55:00 =25,146  km/h

42  Pierre Privat  Individual10h 49' 00"+  01:55:00 =25,146  km/h

43  Joseph Leblanc  Individual10h 49' 00"+  01:55:00 =25,146  km/h

44  Lucien Leman  Individual10h 57' 00"+  02:03:00 =24,840  km/h

45  Jean-Baptiste Camdessoucens  Individual11h 02' 00"+  02:08:00 =24,653  km/h

46  Albert Cognat  Individual11h 02' 00"+  02:08:00 =24,653  km/h

47  Amédée Dutiron  Individual11h 02' 00"+  02:08:00 =24,653  km/h

48  Jules Defrance  Individual11h 02' 00"+  02:08:00 =24,653  km/h

49  Louis Faudon  Individual11h 02' 00"+  02:08:00 =24,653  km/h

50  Noel Combelles  Individual11h 02' 00"+  02:08:00 =24,653  km/h

51  François Riou  Individual11h 21' 00"+  02:27:00 =23,965  km/h

52  Louis Picard  Individual11h 23' 00"+  02:29:00 =23,895  km/h

53  Paul Boillat  Individual11h 37' 00"+  02:43:00 =23,415  km/h

54  Frederic Vaillant  Individual11h 49' 00"+  02:55:00 =23,018  km/h

55  Paul Coppens  Individual11h 52' 00"+  02:58:00 =22,921  km/h

56  Adrien Heloin  Individual11h 59' 00"+  03:05:00 =22,698  km/h

57  Jean Perrucca  Individual11h 59' 00"+  03:05:00 =22,698  km/h

58  Albert Baudet  Individual11h 59' 00"+  03:05:00 =22,698  km/h

59  Francois Picolot  Individual11h 59' 00"+  03:05:00 =22,698  km/h

60  Emile Abegg  Individual12h 04' 00"+  03:10:00 =22,541  km/h

61  Charles Clodi  Individual12h 04' 00"+  03:10:00 =22,541  km/h

62  Emile Godard  Individual12h 13' 00"+  03:19:00 =22,265  km/h

63  Pietro Ghislotti  Individual12h 13' 00"+  03:19:00 =22,265  km/h

64  Lucien Roquebert  Individual12h 16' 00"+  03:22:00 =22,174  km/h

65  Alphonse Charpiot  Le Globe12h 27' 00"+  03:33:00 =21,847  km/h

66  Emile Lamboeuf  Individual12h 27' 00"+  03:33:00 =21,847  km/h

67  Antony Wattelier  Individual12h 50' 00"+  03:56:00 =21,195  km/h

68  Rene Bartholet  Individual13h 10' 00"+  04:16:00 =20,658  km/h

69  Henri Alavoine  Individual13h 14' 00"+  04:20:00 =20,554  km/h

70  Georges Cauvry  Individual13h 14' 00"+  04:20:00 =20,554  km/h

71  Omer Beaugendre  Le Globe13h 14' 00"+  04:20:00 =20,554  km/h

72  Henri Ory  Individual13h 14' 00"+  04:20:00 =20,554  km/h

73  Edmond Heliot  Individual13h 19' 00"+  04:25:00 =20,426  km/h

74  Eugene Moura  Individual13h 24' 00"+  04:30:00 =20,299  km/h

75  Auguste Dufour  Individual13h 36' 00"+  04:42:00 =20,000  km/h

76  Eugene Leroy  Individual13h 36' 00"+  04:42:00 =20,000  km/h

77  Hippolyte Charpentier  Individual13h 36' 00"+  04:42:00 =20,000  km/h

78  Alexandre Rambaudi  Individual13h 36' 00"+  04:42:00 =20,000  km/h

79  Louis Jouin  Individual13h 41' 00"+  04:47:00 =19,878  km/h

80  Adolphe Hélière  Individual13h 41' 00"+  04:47:00 =19,878  km/h

81  Pierre Bordigoni  Individual13h 48' 00"+  04:54:00 =19,710  km/h

82  Emile Lamy  Individual14h 15' 00"+  05:21:00 =19,088  km/h

83  Charles Pavese  Individual14h 15' 00"+  05:21:00 =19,088  km/h

84  Octave Doury  Individual14h 27' 00"+  05:33:00 =18,824  km/h

85  Georges Wagner  Individual14h 27' 00"+  05:33:00 =18,824  km/h

86  Adrien Melaye  Individual14h 27' 00"+  05:33:00 =18,824  km/h

87  Joseph Wiringer  Individual14h 27' 00"+  05:33:00 =18,824  km/h

88  Célestin Guillermoz  Individual15h 00' 00"+  06:06:00 =18,133  km/h

89  Pietro Fiore  Individual15h 04' 00"+  06:10:00 =18,053  km/h

90  Andre Herbelin  Individual15h 08' 00"+  06:14:00 =17,974  km/h

91  Pierre Desvages  Individual15h 12' 00"+  06:18:00 =17,895  km/h

92  Paul Amiot  Individual15h 12' 00"+  06:18:00 =17,895  km/h

93  René Chaudé  Individual15h 31' 00"+  06:37:00 =17,530  km/h

94  Achille Violet  Individual15h 31' 00"+  06:37:00 =17,530  km/h

95  Aldo Bettini  Alcyon15h 56' 00"+  07:02:00 =17,071  km/h

96  Georges Fleury  Individual16h 14' 00"+  07:20:00 =16,756  km/h

97  Emile Besnier  Individual16h 14' 00"+  07:20:00 =16,756  km/h

98  Constant Collet  Individual16h 34' 00"+  07:40:00 =16,419  km/h

99  Georges Devilly  Individual16h 46' 00"+  07:52:00 =16,223  km/h

100  Victor Pasquier  Individual16h 59' 00"+  08:05:00 =16,016  km/h


Withdrawls: 10
 RiderTeamReason
8   Georges Cadolle AlcyonDid not finish
101   Louis Bonino IndividualDid not finish
135   Eugene Merville IndividualDid not finish
148   Pierre Le Floch IndividualDid not finish
154   Pierre Delplace IndividualDid not finish
155   Vicente Blanco IndividualDid not finish
168   Robert Jeannet IndividualDid not finish
171   Albert Guillot IndividualDid not finish
182   Andre Kuhn IndividualDid not finish
191   Raymond Didier IndividualDid not finish
Todays birthdays.

1889 • Adolphe Landon
1890 • Jules Lebreton
1904 • Julien Grujon
1909 • Erich Metze
1926 • Giovanni Rossi
1928 • Serge Blusson
1928 • Alois Vansteenkiste
1931 • André Dupré
1934 • Alfred Rüegg
1962 • Francisco Espinosa
1962 • Paul Kimmage
1963 • Federico Muñoz
1966 • Andrea Tafi
1971 • Emmanuel Magnien
1973 • Paolo Savoldelli
1985 • Mikhail Ignatyev

 

Optimized for Chrome - Edge
and Opera browsers.